Location: Chin
(49.7667°N, 112.4500°W)
Time: 10:41:31
(UTC+00:00)

Envisat - Pass Details

Date: 06 December 2021
Orbit: 764 x 766 km, 98.2° (Epoch: 23 January)

Event Time Altitude Azimuth Distance (km) Brightness Sun altitude
Rises 10:58:19 0° 31° (NNE) 3,245 6.7 -39.8°
Reaches altitude 10° 11:02:11 10° 61° (ENE) 2,311 6.1 -39.2°
Maximum altitude 11:04:15 12° 85° (E) 2,146 6.0 -38.9°
Drops below altitude 10° 11:06:18 10° 109° (ESE) 2,303 6.0 -38.6°
Sets 11:10:08 0° 139° (SE) 3,222 6.6 -37.9°
